This is the latest recevied weather packets stored in our database for station/object WA6MHA-11. If no packets are shown the sender has not sent any weather packets the latest 10 day(s).
| Time | Temp. | Humidity | Pressure | Rain* | Wind** | Luminosity | Snow |
|---|---|---|---|---|---|---|---|
| 1777858101 | 18.89° C | 37% | 1014 hPa | 0 mm | - | - | - |
| 1777857854 | 18.89° C | 37% | 1014.2 hPa | 0 mm | - | - | - |
| 1777857375 | 18.33° C | 36% | 1014 hPa | 0 mm | - | - | - |
| 1777857131 | 18.33° C | 36% | 1013.9 hPa | 0 mm | - | - | - |
| 1777856166 | 19.44° C | 35% | 1014 hPa | 0 mm | - | - | - |
| 1777855924 | 19.44° C | 35% | 1013.9 hPa | 0 mm | - | - | - |
| 1777855683 | 19.44° C | 34% | 1013.9 hPa | 0 mm | - | - | - |
| 1777855442 | 19.44° C | 34% | 1013.8 hPa | 0 mm | - | - | - |
| 1777855206 | 19.44° C | 34% | 1013.8 hPa | 0 mm | - | - | - |
| 1777854718 | 19.44° C | 33% | 1013.8 hPa | 0 mm | - | - | - |
| 1777854477 | 20° C | 33% | 1013.7 hPa | 0 mm | - | - | - |
| 1777854236 | 20° C | 33% | 1013.8 hPa | 0 mm | - | - | - |
| 1777853753 | 20° C | 33% | 1013.8 hPa | 0 mm | - | - | - |
| 1777853277 | 21.11° C | 32% | 1013.7 hPa | 0 mm | - | - | - |
| 1777853031 | 21.11° C | 32% | 1013.7 hPa | 0 mm | - | - | - |
| 1777852548 | 21.11° C | 32% | 1013.7 hPa | 0 mm | - | - | - |
| 1777851826 | 22.22° C | 32% | 1013.7 hPa | 0 mm | - | - | - |
| 1777851274 | 21.67° C | 32% | 1013.7 hPa | 0 mm | - | - | - |
| 1777851193 | 21.67° C | 32% | 1013.7 hPa | 0 mm | - | - | - |
| 1777851100 | 21.67° C | 32% | 1013.7 hPa | 0 mm | - | - | - |
| 1777850863 | 21.67° C | 33% | 1013.8 hPa | 0 mm | - | - | - |
| 1777850618 | 22.22° C | 33% | 1013.8 hPa | 0 mm | - | - | - |
| 1777849169 | 21.11° C | 33% | 1013.9 hPa | 0 mm | - | - | - |
| 1777848928 | 21.67° C | 33% | 1014 hPa | 0 mm | - | - | - |
| 1777848702 | 22.78° C | 33% | 1014 hPa | 0 mm | - | - | - |
* Rain since midnight (hover to see other rain measurements)
** Current wind speed in m/s (hover to see current wind gust speed)